Regional Weather Roundup
Issued by NWS

Home | Current Version | Previous Version | Graphics & Text | Print | Product List | Glossary On
Versions: 1 2 3 4 5 6 7 8 9 10 11 12 13 14 15 16 17 18 19 20 21 22 23 24 25 26 27 28 29 30 31 32 33 34 35 36 37 38 39 40 41 42 43 44 45 46 47 48 49 50
000
ASUS45 KABQ 240010
RWRNM
NEW MEXICO REGIONAL WEATHER ROUNDUP
NATIONAL WEATHER SERVICE ALBUQUERQUE NM
600 PM MDT SAT MAY 23 2015

NOTE: "FAIR" MEANS FEW OR NO CLOUDS BELOW 12,000 FEET AGL WITH NO
       SIGNIFICANT WEATHER OR OBSTRUCTIONS TO VISION.

      THIS PRODUCT IS RELEASED AS TWO VERSIONS.  ONE VERSION NEAR
      THE TOP OF THE HOUR CONTAINING PRELIMINARY DATA FROM ALBUQUERQUE
      AND OTHER STATIONS.  A FINAL VERSION WITH ADDITIONAL DATA IS
      ISSUED ABOUT 10 MINUTES AFTER THE HOUR.

NMZ501-503-504-510>518-240100-
NORTHWEST PLATEAU/NORTHCENTRAL MOUNTAINS

CITY           SKY/WX    TMP DP  RH WIND       PRES   REMARKS
FARMINGTON     MOSUNNY   55  35  47 W17G23    29.97R
6HR MIN TEMP:  55; 6HR MAX TEMP:  65;

LOS ALAMOS     SUNNY     60  20  21 SW14G24   29.99F
SANTA FE       MOSUNNY   65  21  18 W13       29.92F
6HR MIN TEMP:  62; 6HR MAX TEMP:  68;

TAOS           PTSUNNY   55  28  35 NW13      29.99S
ANGEL FIRE     MOCLDY    50  26  40 W10G22    30.02F

$$
NMZ402-403-502-505>509-240100-
WESTCENTRAL MOUNTAINS/SOUTHWEST MOUNTAINS

CITY           SKY/WX    TMP DP  RH WIND       PRES   REMARKS
GALLUP         MOSUNNY   59  26  28 SW15G21   30.01S
6HR MIN TEMP:  57; 6HR MAX TEMP:  61;

GRANTS         PTSUNNY   63  20  19 W13G23    29.99F
SILVER CITY    SUNNY     68  18  14 NW20G26   29.98F

$$
NMZ407-409-411-412-240100-
SOUTHERN DESERTS

CITY           SKY/WX    TMP DP  RH WIND       PRES   REMARKS
LORDSBURG      FAIR      75  19  12 W20G25    29.92S
DEMING         SUNNY     76  22  13 NW15G25   29.90F
6HR MIN TEMP:  71; 6HR MAX TEMP:  78;

LAS CRUCES     SUNNY     77  15   9 W17G23    29.90S
HOLLOMAN AFB   SUNNY     78  15   9 W10       29.85F
ALAMOGORDO     SUNNY     77  14   9 SW13G22   29.87S
T OR C         SUNNY     76  13   9 SW15G25   29.86S
6HR MIN TEMP:  69; 6HR MAX TEMP:  78;


$$
NMZ519>523-240100-
CENTRAL VALLEYS/CENTRAL HIGHLANDS

CITY           SKY/WX    TMP DP  RH WIND       PRES   REMARKS
ALBUQUERQUE    PTSUNNY   70  20  15 S16       29.90S
6HR MIN TEMP:  64; 6HR MAX TEMP:  73;

DOUBLE EAGLE   MOSUNNY   68  23  18 SW17G31   29.92F
MORIARTY ARPT  FAIR      68  16  13 W15G23    29.93F
6HR MIN TEMP:  62; 6HR MAX TEMP:  70;

CLINES CORNERS MOSUNNY   63  18  17 W14       29.95F
6HR MIN TEMP:  60; 6HR MAX TEMP:  66;

BELEN          FAIR      74  17  11 W10       29.88S
6HR MIN TEMP:  68; 6HR MAX TEMP:  78;

SOCORRO        FAIR      76  19  11 CALM      29.85S
6HR MIN TEMP:  71; 6HR MAX TEMP:  76;


$$
NMZ524>526-539-540-240100-
SOUTHCENTRAL MOUNTAINS

CITY           SKY/WX    TMP DP  RH WIND       PRES   REMARKS
RUIDOSO        SUNNY     63  14  15 SW18G28   30.00R

$$
NMZ527>531-240100-
NORTHEAST HIGHLANDS/NORTHEAST PLAINS

CITY           SKY/WX    TMP DP  RH WIND       PRES   REMARKS
LAS VEGAS      MOSUNNY   62  24  23 W18G26    29.94F
6HR MIN TEMP:  60; 6HR MAX TEMP:  65;

RATON          MOSUNNY   67  28  23 SW18      29.85F
6HR MIN TEMP:  64; 6HR MAX TEMP:  70;

CLAYTON        PTSUNNY   65  57  75 SE24G30   29.87R
6HR MIN TEMP:  60; 6HR MAX TEMP:  71;


$$
NMZ532>537-240100-
EASTCENTRAL PLAINS

CITY           SKY/WX    TMP DP  RH WIND       PRES   REMARKS
TUCUMCARI      SUNNY     78  33  19 SW13      29.82R
6HR MIN TEMP:  76; 6HR MAX TEMP:  79;

CANNON AFB     PTSUNNY   76  34  21 SW16G25   29.85R
6HR MIN TEMP:  74; 6HR MAX TEMP:  78;

CLOVIS AIRPORT CLOUDY    75  34  22 SW20        N/A

$$
NMZ028-029-538-240100-
SOUTHEAST PLAINS

CITY           SKY/WX    TMP DP  RH WIND       PRES   REMARKS
ROSWELL        PTSUNNY   80  20  10 SW13      29.79R
6HR MIN TEMP:  80; 6HR MAX TEMP:  85;

ARTESIA        PTSUNNY   81  16   9 SW28      29.82R
CARLSBAD       PTSUNNY   82  26  13 W14       29.79R
6HR MIN TEMP:  82; 6HR MAX TEMP:  88;

HOBBS          PTSUNNY   66  55  68 SE14G20   29.87R


$$


USA.gov is the U.S. government's official web portal to all federal, state and local government web resources and services.